[Iaude] MPEC N57: 2019 GE185 [a=91.58,e=0.60,i=27.9,H=7.68]
    mpec at cfa.harvard.edu 
    mpec at cfa.harvard.edu
       
    Fri Jul  5 11:15:12 EDT 2024
    
    
  
M.P.E.C. 2024-N57                                  Issued 2024 July 5, 15:13 UT
     The Minor Planet Electronic Circulars contain information on unusual
         minor planets, routine data on comets and natural satellites,
         and occasional editorial announcements.  They are published
    on behalf of Division F of the International Astronomical Union by the
          Minor Planet Center, Smithsonian Astrophysical Observatory,
                          Cambridge, MA 02138, U.S.A.
			  
             Prepared using the Tamkin Foundation Computer Network
                              MPC at CFA.HARVARD.EDU
            URL https://www.minorplanetcenter.net/    ISSN 1523-6714
                                   2019 GE185                                   
Additional Observations:
     K19GI5E 1C2017 04 01.41455113 31 20.66 +00 12 55.9                WEN057T09
     K19GI5E 1C2017 04 28.38147613 29 43.03 +00 24 42.2                WEN057T09
     K19GI5E 1C2019 03 10.54306013 41 16.83 +00 12 35.0                WEN057T09
     K19GI5E 1C2019 03 10.54936713 41 16.82 +00 12 35.0                WEN057T09
Observer details:
T09 Subaru Telescope, Maunakea.  Observer .  Measurer S. Deen.  8.3-m Subaru
    Telescope + CCD.
Orbital elements:
2019 GE185                                                                      
Epoch 2024 Mar. 31.0 TT = JDT 2460400.5                 Alexandersen            
M 343.40358              (2000.0)            P               Q                  
n   0.00112457     Peri.   96.04359     +0.16115350     +0.98647729             
a  91.5825773      Node   183.65896     -0.98361331     +0.16301726             
e   0.6025124      Incl.   27.90620     +0.08083572     +0.01696866             
P 876              H    7.68          G   0.15           U   9                  
Residuals in seconds of arc
170401 T09  0.0   0.0     190407 T09  0.1+  0.0     190528 T09  0.1-  0.1-
170428 T09  0.0   0.0     190407 T09  0.1-  0.1+    190528 T09  0.0   0.1-
190310 T09  0.0   0.1+    190408 T09  0.0   0.0     190528 T09  0.1+  0.0
190310 T09  0.1+  0.1-    190408 T09  0.1-  0.1+    190528 T09  0.1+  0.1-
190407 T09  0.0   0.1+    190408 T09  0.0   0.1-
190407 T09  0.1-  0.0     190528 T09  0.1+  0.1+
Ephemeris:
2019 GE185               a,e,i = 91.58, 0.60, 28                 q = 36.4029
Date    TT    R. A. (2000) Decl.     Delta      r    Elong.  Phase     V
2024 06 05    13 59 30.3 +01 15 47  47.1689 47.8481   131.6     0.9    24.6
...
2024 06 20    13 58 57.1 +01 16 49  47.3496 47.8292   117.6     1.1    24.6
...
2024 06 28    13 58 45.3 +01 16 36  47.4590 47.8191   110.2     1.1    24.6
...
2024 07 04    13 58 39.4 +01 16 05  47.5454 47.8115   104.6     1.2    24.6
2024 07 05    13 58 38.7 +01 15 58  47.5601 47.8103   103.7     1.2    24.6
2024 07 06    13 58 38.0 +01 15 50  47.5748 47.8090   102.7     1.2    24.6
...
2024 07 12    13 58 35.7 +01 14 56  47.6645 47.8014    97.1     1.2    24.6
...
2024 07 20    13 58 36.9 +01 13 18  47.7858 47.7913    89.7     1.2    24.6
...
2024 08 04    13 58 52.3 +01 09 02  48.0113 47.7724    75.8     1.2    24.7
M. P. C. Staff               (C) Copyright 2024 MPC           M.P.E.C. 2024-N57
    
    
More information about the Iaude
mailing list